Location: Banksville Park
(38.5557°N, 75.1182°W)
Time: 23:27:55
(UTC+00:00)

MetOp-A - Pass Details

Date: 19 September 2020
Orbit: 820 x 821 km, 98.5° (Epoch: 30 October)

Event Time Altitude Azimuth Distance (km) Brightness Sun altitude
Exits shadow 01:07:53 46° 173° (S) 1,093 4.5 -24.6°
Maximum altitude 01:09:33 84° 257° (WSW) 830 4.1 -24.9°
Drops below altitude 10° 01:14:56 10° 346° (NNW) 2,424 7.0 -25.8°
Sets 01:17:18 0° 347° (NNW) 3,361 7.8 -26.2°
